contact:dominique.lefevre@mio.osupytheas.fr, maurice.libes@osupytheas.fr, didier.mallarino@osupytheas.fr
Project:EMSO http://www.emso-fr.org/EMSO-France
Depth: 2436.0 m
Title:EMSO Ligure Ouest : Data MII capteur MICROCAT
DateTime_Computer,Latitude,Longitude,Temperature,Conductivity,Pressure,DateTime_Instrument
DateTime_Computer,Latitude,Longitude,degC,S m-1,dbar,DateTime_Instrument
2022-01-16T00:01:34Z,42.805,6.029,13.2994,4.60019,2470.264,2022-1-16T02:03:05Z
2022-01-16T00:04:37Z,42.805,6.029,13.2995,4.60019,2470.24,2022-1-16T02:06:08Z
2022-01-16T00:07:40Z,42.805,6.029,13.2994,4.60020,2470.25,2022-1-16T02:09:11Z
2022-01-16T00:10:43Z,42.805,6.029,13.2992,4.60019,2470.264,2022-1-16T02:12:14Z
2022-01-16T00:13:46Z,42.805,6.029,13.2992,4.60019,2470.24,2022-1-16T02:15:17Z
2022-01-16T00:16:49Z,42.805,6.029,13.2994,4.60019,2470.264,2022-1-16T02:18:20Z
2022-01-16T00:19:52Z,42.805,6.029,13.2996,4.60019,2470.264,2022-1-16T02:21:23Z
2022-01-16T00:22:55Z,42.805,6.029,13.2993,4.60019,2470.297,2022-1-16T02:24:26Z
2022-01-16T00:25:59Z,42.805,6.029,13.2993,4.60019,2470.213,2022-1-16T02:27:30Z
2022-01-16T00:29:02Z,42.805,6.029,13.2993,4.60019,2470.25,2022-1-16T02:30:33Z
2022-01-16T00:32:05Z,42.805,6.029,13.2997,4.60019,2470.227,2022-1-16T02:33:36Z
2022-01-16T00:35:08Z,42.805,6.029,13.2997,4.60019,2470.25,2022-1-16T02:36:39Z
2022-01-16T00:38:11Z,42.805,6.029,13.2995,4.60019,2470.264,2022-1-16T02:39:42Z
2022-01-16T00:41:14Z,42.805,6.029,13.2995,4.60019,2470.227,2022-1-16T02:42:45Z
2022-01-16T00:44:17Z,42.805,6.029,13.2997,4.60019,2470.273,2022-1-16T02:45:48Z
2022-01-16T00:47:20Z,42.805,6.029,13.2996,4.60021,2470.227,2022-1-16T02:48:51Z
2022-01-16T00:50:24Z,42.805,6.029,13.3000,4.60019,2470.227,2022-1-16T02:51:55Z
2022-01-16T00:53:27Z,42.805,6.029,13.2994,4.60020,2470.227,2022-1-16T02:54:58Z
2022-01-16T00:56:30Z,42.805,6.029,13.2996,4.60020,2470.264,2022-1-16T02:58:01Z
2022-01-16T00:59:33Z,42.805,6.029,13.2993,4.60019,2470.25,2022-1-16T03:01:04Z
2022-01-16T01:02:36Z,42.805,6.029,13.2997,4.60020,2470.273,2022-1-16T03:04:07Z
2022-01-16T01:05:39Z,42.805,6.029,13.2995,4.60019,2470.287,2022-1-16T03:07:10Z
2022-01-16T01:08:42Z,42.805,6.029,13.2999,4.60019,2470.264,2022-1-16T03:10:13Z
2022-01-16T01:11:45Z,42.805,6.029,13.2998,4.60020,2470.25,2022-1-16T03:13:16Z
2022-01-16T01:14:48Z,42.805,6.029,13.2998,4.60021,2470.273,2022-1-16T03:16:20Z
2022-01-16T01:17:52Z,42.805,6.029,13.2996,4.60019,2470.273,2022-1-16T03:19:23Z
2022-01-16T01:20:55Z,42.805,6.029,13.2996,4.60021,2470.273,2022-1-16T03:22:26Z
2022-01-16T01:23:58Z,42.805,6.029,13.2998,4.60020,2470.287,2022-1-16T03:25:29Z
2022-01-16T01:27:01Z,42.805,6.029,13.2998,4.60021,2470.273,2022-1-16T03:28:32Z
2022-01-16T01:30:04Z,42.805,6.029,13.2998,4.60021,2470.273,2022-1-16T03:31:35Z
2022-01-16T01:33:07Z,42.805,6.029,13.2999,4.60020,2470.25,2022-1-16T03:34:38Z
2022-01-16T01:36:10Z,42.805,6.029,13.2993,4.60021,2470.273,2022-1-16T03:37:41Z
2022-01-16T01:39:13Z,42.805,6.029,13.2993,4.60022,2470.287,2022-1-16T03:40:45Z
2022-01-16T01:42:17Z,42.805,6.029,13.2993,4.60020,2470.25,2022-1-16T03:43:48Z
2022-01-16T01:45:20Z,42.805,6.029,13.2995,4.60020,2470.297,2022-1-16T03:46:51Z
2022-01-16T01:48:23Z,42.805,6.029,13.2997,4.60020,2470.273,2022-1-16T03:49:54Z
2022-01-16T01:51:26Z,42.805,6.029,13.2994,4.60021,2470.31,2022-1-16T03:52:57Z
2022-01-16T01:54:29Z,42.805,6.029,13.2996,4.60021,2470.297,2022-1-16T03:56:00Z
2022-01-16T01:57:32Z,42.805,6.029,13.2996,4.60021,2470.273,2022-1-16T03:59:03Z
2022-01-16T02:00:35Z,42.805,6.029,13.3000,4.60023,2470.334,2022-1-16T04:02:06Z
2022-01-16T02:03:38Z,42.805,6.029,13.3000,4.60021,2470.25,2022-1-16T04:05:10Z
2022-01-16T02:06:42Z,42.805,6.029,13.2996,4.60022,2470.25,2022-1-16T04:08:13Z
2022-01-16T02:09:45Z,42.805,6.029,13.2996,4.60022,2470.287,2022-1-16T04:11:16Z
2022-01-16T02:12:48Z,42.805,6.029,13.2998,4.60021,2470.287,2022-1-16T04:14:19Z
2022-01-16T02:15:51Z,42.805,6.029,13.2998,4.60022,2470.25,2022-1-16T04:17:22Z
2022-01-16T02:18:54Z,42.805,6.029,13.2999,4.60021,2470.273,2022-1-16T04:20:25Z
2022-01-16T02:21:57Z,42.805,6.029,13.2995,4.60021,2470.32,2022-1-16T04:23:28Z
2022-01-16T02:25:00Z,42.805,6.029,13.2998,4.60021,2470.297,2022-1-16T04:26:31Z
2022-01-16T02:28:03Z,42.805,6.029,13.2996,4.60021,2470.32,2022-1-16T04:29:35Z
2022-01-16T02:31:07Z,42.805,6.029,13.2997,4.60024,2470.343,2022-1-16T04:32:38Z
2022-01-16T02:34:10Z,42.805,6.029,13.2999,4.60021,2470.32,2022-1-16T04:35:41Z
2022-01-16T02:37:13Z,42.805,6.029,13.2998,4.60021,2470.297,2022-1-16T04:38:44Z
2022-01-16T02:40:16Z,42.805,6.029,13.2998,4.60023,2470.334,2022-1-16T04:41:47Z
2022-01-16T02:43:19Z,42.805,6.029,13.2997,4.60022,2470.334,2022-1-16T04:44:50Z
2022-01-16T02:46:22Z,42.805,6.029,13.2998,4.60023,2470.334,2022-1-16T04:47:53Z
2022-01-16T02:49:25Z,42.805,6.029,13.2998,4.60022,2470.32,2022-1-16T04:50:56Z
2022-01-16T02:52:28Z,42.805,6.029,13.2996,4.60022,2470.334,2022-1-16T04:54:00Z
2022-01-16T02:55:32Z,42.805,6.029,13.2996,4.60022,2470.343,2022-1-16T04:57:03Z
2022-01-16T02:58:35Z,42.805,6.029,13.3000,4.60022,2470.297,2022-1-16T05:00:06Z
2022-01-16T03:01:38Z,42.805,6.029,13.3000,4.60024,2470.334,2022-1-16T05:03:09Z
2022-01-16T03:04:41Z,42.805,6.029,13.3000,4.60022,2470.32,2022-1-16T05:06:12Z
2022-01-16T03:07:44Z,42.805,6.029,13.2998,4.60022,2470.32,2022-1-16T05:09:15Z
2022-01-16T03:10:47Z,42.805,6.029,13.2998,4.60022,2470.343,2022-1-16T05:12:18Z
2022-01-16T03:13:50Z,42.805,6.029,13.2998,4.60023,2470.334,2022-1-16T05:15:21Z
2022-01-16T03:16:53Z,42.805,6.029,13.3001,4.60023,2470.334,2022-1-16T05:18:24Z
2022-01-16T03:19:57Z,42.805,6.029,13.2996,4.60022,2470.357,2022-1-16T05:21:28Z
2022-01-16T03:23:00Z,42.805,6.029,13.3002,4.60024,2470.32,2022-1-16T05:24:31Z
2022-01-16T03:26:03Z,42.805,6.029,13.2996,4.60024,2470.366,2022-1-16T05:27:34Z
2022-01-16T03:29:06Z,42.805,6.029,13.3001,4.60023,2470.343,2022-1-16T05:30:37Z
2022-01-16T03:32:09Z,42.805,6.029,13.2999,4.60023,2470.32,2022-1-16T05:33:40Z
2022-01-16T03:35:12Z,42.805,6.029,13.2997,4.60024,2470.366,2022-1-16T05:36:43Z
2022-01-16T03:38:15Z,42.805,6.029,13.2996,4.60023,2470.343,2022-1-16T05:39:46Z
2022-01-16T03:41:18Z,42.805,6.029,13.2998,4.60023,2470.366,2022-1-16T05:42:49Z
2022-01-16T03:44:21Z,42.805,6.029,13.3000,4.60024,2470.38,2022-1-16T05:45:53Z
2022-01-16T03:47:25Z,42.805,6.029,13.2998,4.60024,2470.334,2022-1-16T05:48:56Z
2022-01-16T03:50:28Z,42.805,6.029,13.2996,4.60023,2470.366,2022-1-16T05:51:59Z
2022-01-16T03:53:31Z,42.805,6.029,13.3001,4.60023,2470.366,2022-1-16T05:55:02Z
2022-01-16T03:56:34Z,42.805,6.029,13.2996,4.60024,2470.343,2022-1-16T05:58:05Z
2022-01-16T03:59:37Z,42.805,6.029,13.2997,4.60023,2470.404,2022-1-16T06:01:08Z
2022-01-16T04:02:40Z,42.805,6.029,13.3000,4.60023,2470.39,2022-1-16T06:04:11Z
2022-01-16T04:05:43Z,42.805,6.029,13.2998,4.60023,2470.39,2022-1-16T06:07:14Z
2022-01-16T04:08:46Z,42.805,6.029,13.2998,4.60024,2470.413,2022-1-16T06:10:18Z
2022-01-16T04:11:50Z,42.805,6.029,13.2998,4.60024,2470.413,2022-1-16T06:13:21Z
2022-01-16T04:14:53Z,42.805,6.029,13.2995,4.60022,2470.404,2022-1-16T06:16:24Z
2022-01-16T04:17:56Z,42.805,6.029,13.2997,4.60026,2470.404,2022-1-16T06:19:27Z
2022-01-16T04:20:59Z,42.805,6.029,13.2996,4.60023,2470.39,2022-1-16T06:22:30Z
2022-01-16T04:24:02Z,42.805,6.029,13.2999,4.60023,2470.413,2022-1-16T06:25:33Z
2022-01-16T04:27:05Z,42.805,6.029,13.2999,4.60024,2470.437,2022-1-16T06:28:36Z
2022-01-16T04:30:08Z,42.805,6.029,13.2998,4.60023,2470.39,2022-1-16T06:31:39Z
2022-01-16T04:33:11Z,42.805,6.029,13.2998,4.60022,2470.39,2022-1-16T06:34:43Z
2022-01-16T04:36:15Z,42.805,6.029,13.3000,4.60023,2470.413,2022-1-16T06:37:46Z
2022-01-16T04:39:18Z,42.805,6.029,13.3000,4.60023,2470.366,2022-1-16T06:40:49Z
2022-01-16T04:42:21Z,42.805,6.029,13.2994,4.60023,2470.413,2022-1-16T06:43:52Z
2022-01-16T04:45:24Z,42.805,6.029,13.3001,4.60023,2470.404,2022-1-16T06:46:55Z
2022-01-16T04:48:27Z,42.805,6.029,13.2998,4.60023,2470.427,2022-1-16T06:49:58Z
2022-01-16T04:51:30Z,42.805,6.029,13.2994,4.60022,2470.413,2022-1-16T06:53:01Z
2022-01-16T04:54:33Z,42.805,6.029,13.3000,4.60023,2470.437,2022-1-16T06:56:04Z
2022-01-16T04:57:36Z,42.805,6.029,13.3000,4.60022,2470.437,2022-1-16T06:59:08Z
2022-01-16T05:00:40Z,42.805,6.029,13.2993,4.60023,2470.427,2022-1-16T07:02:11Z
2022-01-16T05:03:43Z,42.805,6.029,13.2997,4.60024,2470.427,2022-1-16T07:05:14Z
2022-01-16T05:06:46Z,42.805,6.029,13.2998,4.60022,2470.45,2022-1-16T07:08:17Z
2022-01-16T05:09:49Z,42.805,6.029,13.3000,4.60024,2470.413,2022-1-16T07:11:20Z
2022-01-16T05:12:52Z,42.805,6.029,13.2998,4.60023,2470.38,2022-1-16T07:14:23Z
2022-01-16T05:15:55Z,42.805,6.029,13.2996,4.60024,2470.413,2022-1-16T07:17:26Z
2022-01-16T05:18:58Z,42.805,6.029,13.2998,4.60023,2470.404,2022-1-16T07:20:29Z
2022-01-16T05:22:01Z,42.805,6.029,13.2997,4.60023,2470.366,2022-1-16T07:23:33Z
2022-01-16T05:25:05Z,42.805,6.029,13.3002,4.60024,2470.39,2022-1-16T07:26:36Z
2022-01-16T05:28:08Z,42.805,6.029,13.2999,4.60024,2470.404,2022-1-16T07:29:39Z
2022-01-16T05:31:11Z,42.805,6.029,13.3000,4.60024,2470.39,2022-1-16T07:32:42Z
2022-01-16T05:34:14Z,42.805,6.029,13.3000,4.60026,2470.413,2022-1-16T07:35:45Z
2022-01-16T05:37:17Z,42.805,6.029,13.3000,4.60024,2470.39,2022-1-16T07:38:48Z
2022-01-16T05:40:20Z,42.805,6.029,13.2996,4.60026,2470.413,2022-1-16T07:41:51Z
2022-01-16T05:43:23Z,42.805,6.029,13.2996,4.60027,2470.413,2022-1-16T07:44:54Z
2022-01-16T05:46:26Z,42.805,6.029,13.2995,4.60026,2470.39,2022-1-16T07:47:58Z
2022-01-16T05:49:30Z,42.805,6.029,13.3001,4.60026,2470.39,2022-1-16T07:51:01Z
2022-01-16T05:52:33Z,42.805,6.029,13.2999,4.60027,2470.357,2022-1-16T07:54:04Z
2022-01-16T05:55:36Z,42.805,6.029,13.3001,4.60025,2470.38,2022-1-16T07:57:07Z
2022-01-16T05:58:39Z,42.805,6.029,13.3001,4.60024,2470.404,2022-1-16T08:00:10Z
2022-01-16T06:01:42Z,42.805,6.029,13.2996,4.60024,2470.366,2022-1-16T08:03:13Z
2022-01-16T06:04:45Z,42.805,6.029,13.2997,4.60026,2470.38,2022-1-16T08:06:16Z
2022-01-16T06:07:48Z,42.805,6.029,13.3000,4.60024,2470.343,2022-1-16T08:09:19Z
2022-01-16T06:10:51Z,42.805,6.029,13.2997,4.60024,2470.343,2022-1-16T08:12:22Z
2022-01-16T06:13:55Z,42.805,6.029,13.3000,4.60024,2470.343,2022-1-16T08:15:26Z
2022-01-16T06:16:58Z,42.805,6.029,13.2997,4.60024,2470.38,2022-1-16T08:18:29Z
2022-01-16T06:20:01Z,42.805,6.029,13.2996,4.60026,2470.366,2022-1-16T08:21:32Z
2022-01-16T06:23:04Z,42.805,6.029,13.2996,4.60023,2470.343,2022-1-16T08:24:35Z
2022-01-16T06:26:07Z,42.805,6.029,13.2999,4.60024,2470.39,2022-1-16T08:27:38Z
2022-01-16T06:29:10Z,42.805,6.029,13.2998,4.60026,2470.39,2022-1-16T08:30:41Z
2022-01-16T06:32:13Z,42.805,6.029,13.3000,4.60025,2470.357,2022-1-16T08:33:44Z
2022-01-16T06:35:16Z,42.805,6.029,13.2995,4.60026,2470.357,2022-1-16T08:36:47Z
2022-01-16T06:38:19Z,42.805,6.029,13.2999,4.60024,2470.343,2022-1-16T08:39:51Z
2022-01-16T06:41:23Z,42.805,6.029,13.2993,4.60024,2470.343,2022-1-16T08:42:54Z
2022-01-16T06:44:26Z,42.805,6.029,13.3000,4.60029,2470.343,2022-1-16T08:45:57Z
2022-01-16T06:47:29Z,42.805,6.029,13.2998,4.60024,2470.366,2022-1-16T08:49:00Z
2022-01-16T06:50:32Z,42.805,6.029,13.2999,4.60026,2470.39,2022-1-16T08:52:03Z
2022-01-16T06:53:35Z,42.805,6.029,13.3002,4.60024,2470.357,2022-1-16T08:55:06Z
2022-01-16T06:56:38Z,42.805,6.029,13.2998,4.60025,2470.357,2022-1-16T08:58:09Z
2022-01-16T06:59:41Z,42.805,6.029,13.3000,4.60026,2470.38,2022-1-16T09:01:12Z
2022-01-16T07:02:44Z,42.805,6.029,13.2997,4.60025,2470.357,2022-1-16T09:04:16Z
2022-01-16T07:05:48Z,42.805,6.029,13.3002,4.60027,2470.343,2022-1-16T09:07:19Z
2022-01-16T07:08:51Z,42.805,6.029,13.2999,4.60026,2470.366,2022-1-16T09:10:22Z
2022-01-16T07:11:54Z,42.805,6.029,13.3000,4.60026,2470.343,2022-1-16T09:13:25Z
2022-01-16T07:14:57Z,42.805,6.029,13.2998,4.60025,2470.32,2022-1-16T09:16:28Z
2022-01-16T07:18:00Z,42.805,6.029,13.2998,4.60026,2470.32,2022-1-16T09:19:31Z
2022-01-16T07:21:03Z,42.805,6.029,13.2998,4.60027,2470.357,2022-1-16T09:22:34Z
2022-01-16T07:24:06Z,42.805,6.029,13.2997,4.60029,2470.32,2022-1-16T09:25:37Z
2022-01-16T07:27:09Z,42.805,6.029,13.3002,4.60026,2470.32,2022-1-16T09:28:41Z
2022-01-16T07:30:13Z,42.805,6.029,13.3000,4.60026,2470.357,2022-1-16T09:31:44Z
2022-01-16T07:33:16Z,42.805,6.029,13.3001,4.60026,2470.33,2022-1-16T09:34:47Z
2022-01-16T07:36:19Z,42.805,6.029,13.2995,4.60028,2470.357,2022-1-16T09:37:50Z
2022-01-16T07:39:22Z,42.805,6.029,13.2998,4.60026,2470.297,2022-1-16T09:40:53Z
2022-01-16T07:42:25Z,42.805,6.029,13.3000,4.60027,2470.334,2022-1-16T09:43:56Z
2022-01-16T07:45:28Z,42.805,6.029,13.2999,4.60026,2470.32,2022-1-16T09:46:59Z
2022-01-16T07:48:31Z,42.805,6.029,13.3000,4.60026,2470.343,2022-1-16T09:50:02Z
2022-01-16T07:51:34Z,42.805,6.029,13.2995,4.60026,2470.343,2022-1-16T09:53:06Z
2022-01-16T07:54:38Z,42.805,6.029,13.2998,4.60027,2470.32,2022-1-16T09:56:09Z
2022-01-16T07:57:41Z,42.805,6.029,13.2995,4.60028,2470.32,2022-1-16T09:59:12Z
2022-01-16T08:00:44Z,42.805,6.029,13.2997,4.60026,2470.357,2022-1-16T10:02:15Z
2022-01-16T08:03:47Z,42.805,6.029,13.3003,4.60026,2470.297,2022-1-16T10:05:18Z
2022-01-16T08:06:50Z,42.805,6.029,13.3003,4.60026,2470.343,2022-1-16T10:08:21Z
2022-01-16T08:09:53Z,42.805,6.029,13.3000,4.60028,2470.343,2022-1-16T10:11:24Z
2022-01-16T08:12:56Z,42.805,6.029,13.2998,4.60026,2470.334,2022-1-16T10:14:27Z
2022-01-16T08:15:59Z,42.805,6.029,13.2999,4.60028,2470.297,2022-1-16T10:17:31Z
2022-01-16T08:19:03Z,42.805,6.029,13.3003,4.60029,2470.297,2022-1-16T10:20:34Z
2022-01-16T08:22:06Z,42.805,6.029,13.3000,4.60028,2470.297,2022-1-16T10:23:37Z
2022-01-16T08:25:09Z,42.805,6.029,13.3000,4.60028,2470.334,2022-1-16T10:26:40Z
2022-01-16T08:28:12Z,42.805,6.029,13.3003,4.60027,2470.287,2022-1-16T10:29:43Z
2022-01-16T08:31:15Z,42.805,6.029,13.2998,4.60025,2470.287,2022-1-16T10:32:46Z
2022-01-16T08:34:18Z,42.805,6.029,13.2996,4.60026,2470.297,2022-1-16T10:35:49Z
2022-01-16T08:37:21Z,42.805,6.029,13.2998,4.60026,2470.297,2022-1-16T10:38:52Z
2022-01-16T08:40:24Z,42.805,6.029,13.3001,4.60027,2470.297,2022-1-16T10:41:56Z
2022-01-16T08:43:28Z,42.805,6.029,13.3000,4.60029,2470.31,2022-1-16T10:44:59Z
2022-01-16T08:46:31Z,42.805,6.029,13.3000,4.60026,2470.343,2022-1-16T10:48:02Z
2022-01-16T08:49:34Z,42.805,6.029,13.2996,4.60026,2470.32,2022-1-16T10:51:05Z
2022-01-16T08:52:37Z,42.805,6.029,13.3002,4.60027,2470.297,2022-1-16T10:54:08Z
2022-01-16T08:55:40Z,42.805,6.029,13.3000,4.60029,2470.31,2022-1-16T10:57:11Z
2022-01-16T08:58:43Z,42.805,6.029,13.3000,4.60028,2470.297,2022-1-16T11:00:14Z
2022-01-16T09:01:46Z,42.805,6.029,13.2998,4.60026,2470.297,2022-1-16T11:03:17Z
2022-01-16T09:04:50Z,42.805,6.029,13.2997,4.60025,2470.273,2022-1-16T11:06:21Z
2022-01-16T09:07:53Z,42.805,6.029,13.2998,4.60024,2470.334,2022-1-16T11:09:24Z
2022-01-16T09:10:56Z,42.805,6.029,13.2994,4.60026,2470.297,2022-1-16T11:12:27Z
2022-01-16T09:13:59Z,42.805,6.029,13.3002,4.60026,2470.32,2022-1-16T11:15:30Z
2022-01-16T09:17:02Z,42.805,6.029,13.3000,4.60027,2470.297,2022-1-16T11:18:33Z
2022-01-16T09:20:05Z,42.805,6.029,13.2998,4.60025,2470.273,2022-1-16T11:21:36Z
2022-01-16T09:23:08Z,42.805,6.029,13.2999,4.60027,2470.297,2022-1-16T11:24:39Z
2022-01-16T09:26:11Z,42.805,6.029,13.3000,4.60026,2470.31,2022-1-16T11:27:42Z
2022-01-16T09:29:15Z,42.805,6.029,13.2999,4.60026,2470.32,2022-1-16T11:30:46Z
2022-01-16T09:32:18Z,42.805,6.029,13.3003,4.60029,2470.297,2022-1-16T11:33:49Z
2022-01-16T09:35:21Z,42.805,6.029,13.2996,4.60028,2470.32,2022-1-16T11:36:52Z
2022-01-16T09:38:24Z,42.805,6.029,13.3000,4.60029,2470.297,2022-1-16T11:39:55Z
2022-01-16T09:41:27Z,42.805,6.029,13.3000,4.60026,2470.297,2022-1-16T11:42:58Z
2022-01-16T09:44:30Z,42.805,6.029,13.2999,4.60027,2470.297,2022-1-16T11:46:01Z
2022-01-16T09:47:33Z,42.805,6.029,13.2998,4.60028,2470.297,2022-1-16T11:49:04Z
2022-01-16T09:50:36Z,42.805,6.029,13.3000,4.60027,2470.343,2022-1-16T11:52:08Z
2022-01-16T09:53:40Z,42.805,6.029,13.2998,4.60027,2470.31,2022-1-16T11:55:11Z
2022-01-16T09:56:43Z,42.805,6.029,13.3001,4.60027,2470.357,2022-1-16T11:58:14Z
2022-01-16T09:59:46Z,42.805,6.029,13.3000,4.60028,2470.31,2022-1-16T12:01:17Z
2022-01-16T10:02:49Z,42.805,6.029,13.2998,4.60026,2470.297,2022-1-16T12:04:20Z
2022-01-16T10:05:52Z,42.805,6.029,13.2999,4.60026,2470.297,2022-1-16T12:07:23Z
2022-01-16T10:08:55Z,42.805,6.029,13.2999,4.60029,2470.273,2022-1-16T12:10:26Z
2022-01-16T10:11:58Z,42.805,6.029,13.2998,4.60028,2470.31,2022-1-16T12:13:29Z
2022-01-16T10:15:01Z,42.805,6.029,13.3000,4.60027,2470.334,2022-1-16T12:16:33Z
2022-01-16T10:18:05Z,42.805,6.029,13.3001,4.60026,2470.31,2022-1-16T12:19:36Z
2022-01-16T10:21:08Z,42.805,6.029,13.2999,4.60026,2470.287,2022-1-16T12:22:39Z
2022-01-16T10:24:11Z,42.805,6.029,13.3000,4.60027,2470.273,2022-1-16T12:25:42Z
2022-01-16T10:27:14Z,42.805,6.029,13.3001,4.60027,2470.297,2022-1-16T12:28:45Z
2022-01-16T10:30:17Z,42.805,6.029,13.2999,4.60026,2470.31,2022-1-16T12:31:48Z
2022-01-16T10:33:20Z,42.805,6.029,13.2998,4.60029,2470.31,2022-1-16T12:34:51Z
2022-01-16T10:36:23Z,42.805,6.029,13.2998,4.60026,2470.287,2022-1-16T12:37:54Z
2022-01-16T10:39:26Z,42.805,6.029,13.3002,4.60026,2470.31,2022-1-16T12:40:58Z
2022-01-16T10:42:30Z,42.805,6.029,13.3000,4.60027,2470.297,2022-1-16T12:44:01Z
2022-01-16T10:45:33Z,42.805,6.029,13.2996,4.60026,2470.297,2022-1-16T12:47:04Z
2022-01-16T10:48:36Z,42.805,6.029,13.3000,4.60026,2470.297,2022-1-16T12:50:07Z
2022-01-16T10:51:39Z,42.805,6.029,13.2998,4.60027,2470.26,2022-1-16T12:53:10Z
2022-01-16T10:54:42Z,42.805,6.029,13.2999,4.60026,2470.25,2022-1-16T12:56:13Z
2022-01-16T10:57:45Z,42.805,6.029,13.2996,4.60026,2470.287,2022-1-16T12:59:16Z
2022-01-16T11:00:48Z,42.805,6.029,13.3000,4.60026,2470.273,2022-1-16T13:02:19Z
2022-01-16T11:03:51Z,42.805,6.029,13.2998,4.60027,2470.31,2022-1-16T13:05:23Z
2022-01-16T11:06:55Z,42.805,6.029,13.2999,4.60026,2470.297,2022-1-16T13:08:26Z
2022-01-16T11:09:58Z,42.805,6.029,13.2998,4.60029,2470.264,2022-1-16T13:11:29Z
2022-01-16T11:13:01Z,42.805,6.029,13.3000,4.60026,2470.25,2022-1-16T13:14:32Z
2022-01-16T11:16:04Z,42.805,6.029,13.2997,4.60026,2470.273,2022-1-16T13:17:35Z
2022-01-16T11:19:07Z,42.805,6.029,13.2997,4.60026,2470.273,2022-1-16T13:20:38Z
2022-01-16T11:22:10Z,42.805,6.029,13.2996,4.60026,2470.25,2022-1-16T13:23:41Z
2022-01-16T11:25:13Z,42.805,6.029,13.3003,4.60026,2470.25,2022-1-16T13:26:45Z
2022-01-16T11:28:17Z,42.805,6.029,13.3001,4.60026,2470.25,2022-1-16T13:29:48Z
2022-01-16T11:31:20Z,42.805,6.029,13.2997,4.60028,2470.273,2022-1-16T13:32:51Z
2022-01-16T11:34:23Z,42.805,6.029,13.3005,4.60026,2470.264,2022-1-16T13:35:54Z
2022-01-16T11:37:26Z,42.805,6.029,13.3001,4.60028,2470.25,2022-1-16T13:38:57Z
2022-01-16T11:40:29Z,42.805,6.029,13.3001,4.60027,2470.25,2022-1-16T13:42:00Z
2022-01-16T11:43:32Z,42.805,6.029,13.3002,4.60026,2470.273,2022-1-16T13:45:03Z
2022-01-16T11:46:35Z,42.805,6.029,13.3002,4.60027,2470.227,2022-1-16T13:48:06Z
2022-01-16T11:49:38Z,42.805,6.029,13.3000,4.60027,2470.273,2022-1-16T13:51:10Z
2022-01-16T11:52:42Z,42.805,6.029,13.2999,4.60027,2470.25,2022-1-16T13:54:13Z
2022-01-16T11:55:45Z,42.805,6.029,13.2998,4.60027,2470.227,2022-1-16T13:57:16Z
2022-01-16T11:58:48Z,42.805,6.029,13.3000,4.60026,2470.227,2022-1-16T14:00:19Z
2022-01-16T12:01:51Z,42.805,6.029,13.2996,4.60027,2470.264,2022-1-16T14:03:22Z
2022-01-16T12:04:54Z,42.805,6.029,13.2998,4.60026,2470.25,2022-1-16T14:06:25Z
2022-01-16T12:07:57Z,42.805,6.029,13.2999,4.60026,2470.227,2022-1-16T14:09:28Z
2022-01-16T12:11:00Z,42.805,6.029,13.3001,4.60028,2470.25,2022-1-16T14:12:31Z
2022-01-16T12:14:03Z,42.805,6.029,13.2996,4.60027,2470.25,2022-1-16T14:15:35Z
2022-01-16T12:17:07Z,42.805,6.029,13.3000,4.60029,2470.227,2022-1-16T14:18:38Z
2022-01-16T12:20:10Z,42.805,6.029,13.3000,4.60029,2470.24,2022-1-16T14:21:41Z
2022-01-16T12:23:13Z,42.805,6.029,13.2999,4.60027,2470.227,2022-1-16T14:24:44Z
2022-01-16T12:26:16Z,42.805,6.029,13.2999,4.60029,2470.227,2022-1-16T14:27:47Z
2022-01-16T12:29:19Z,42.805,6.029,13.3003,4.60029,2470.273,2022-1-16T14:30:50Z
2022-01-16T12:32:22Z,42.805,6.029,13.3000,4.60026,2470.24,2022-1-16T14:33:53Z
2022-01-16T12:35:25Z,42.805,6.029,13.3000,4.60027,2470.203,2022-1-16T14:36:56Z
2022-01-16T12:38:29Z,42.805,6.029,13.3000,4.60025,2470.264,2022-1-16T14:40:00Z
2022-01-16T12:41:32Z,42.805,6.029,13.3000,4.60026,2470.273,2022-1-16T14:43:03Z
2022-01-16T12:44:35Z,42.805,6.029,13.2998,4.60026,2470.227,2022-1-16T14:46:06Z
2022-01-16T12:47:38Z,42.805,6.029,13.2999,4.60026,2470.227,2022-1-16T14:49:09Z
2022-01-16T12:50:41Z,42.805,6.029,13.3001,4.60029,2470.227,2022-1-16T14:52:12Z
2022-01-16T12:53:44Z,42.805,6.029,13.3000,4.60027,2470.25,2022-1-16T14:55:15Z
2022-01-16T12:56:47Z,42.805,6.029,13.3000,4.60028,2470.25,2022-1-16T14:58:18Z
2022-01-16T12:59:50Z,42.805,6.029,13.3000,4.60027,2470.24,2022-1-16T15:01:21Z
2022-01-16T13:02:54Z,42.805,6.029,13.3002,4.60027,2470.227,2022-1-16T15:04:25Z
2022-01-16T13:05:57Z,42.805,6.029,13.3003,4.60029,2470.24,2022-1-16T15:07:28Z
2022-01-16T13:09:00Z,42.805,6.029,13.2998,4.60029,2470.203,2022-1-16T15:10:31Z
2022-01-16T13:12:03Z,42.805,6.029,13.2997,4.60028,2470.227,2022-1-16T15:13:34Z
2022-01-16T13:15:06Z,42.805,6.029,13.3000,4.60029,2470.203,2022-1-16T15:16:37Z
2022-01-16T13:18:09Z,42.805,6.029,13.3001,4.60028,2470.227,2022-1-16T15:19:40Z
2022-01-16T13:21:12Z,42.805,6.029,13.2995,4.60029,2470.24,2022-1-16T15:22:43Z
2022-01-16T13:24:15Z,42.805,6.029,13.3000,4.60028,2470.24,2022-1-16T15:25:47Z
2022-01-16T13:27:19Z,42.805,6.029,13.3004,4.60027,2470.25,2022-1-16T15:28:50Z
2022-01-16T13:30:22Z,42.805,6.029,13.3002,4.60029,2470.25,2022-1-16T15:31:53Z
2022-01-16T13:33:25Z,42.805,6.029,13.3001,4.60029,2470.264,2022-1-16T15:34:56Z
2022-01-16T13:36:28Z,42.805,6.029,13.2998,4.60028,2470.25,2022-1-16T15:37:59Z
2022-01-16T13:39:31Z,42.805,6.029,13.3001,4.60031,2470.25,2022-1-16T15:41:02Z
2022-01-16T13:42:34Z,42.805,6.029,13.3001,4.60029,2470.24,2022-1-16T15:44:05Z
2022-01-16T13:45:37Z,42.805,6.029,13.3001,4.60029,2470.24,2022-1-16T15:47:08Z
2022-01-16T13:48:40Z,42.805,6.029,13.3004,4.60029,2470.25,2022-1-16T15:50:12Z
2022-01-16T13:51:44Z,42.805,6.029,13.2999,4.60029,2470.227,2022-1-16T15:53:15Z
2022-01-16T13:54:47Z,42.805,6.029,13.3004,4.60029,2470.227,2022-1-16T15:56:18Z
2022-01-16T13:57:50Z,42.805,6.029,13.3002,4.60029,2470.287,2022-1-16T15:59:21Z
2022-01-16T14:00:53Z,42.805,6.029,13.3003,4.60030,2470.24,2022-1-16T16:02:24Z
2022-01-16T14:03:56Z,42.805,6.029,13.2999,4.60031,2470.25,2022-1-16T16:05:27Z
2022-01-16T14:06:59Z,42.805,6.029,13.3001,4.60029,2470.264,2022-1-16T16:08:30Z
2022-01-16T14:10:02Z,42.805,6.029,13.3001,4.60029,2470.264,2022-1-16T16:11:33Z
2022-01-16T14:13:05Z,42.805,6.029,13.3006,4.60028,2470.287,2022-1-16T16:14:37Z
2022-01-16T14:16:09Z,42.805,6.029,13.3003,4.60029,2470.25,2022-1-16T16:17:40Z
2022-01-16T14:19:12Z,42.805,6.029,13.3000,4.60029,2470.264,2022-1-16T16:20:43Z
2022-01-16T14:22:15Z,42.805,6.029,13.3004,4.60029,2470.25,2022-1-16T16:23:46Z
2022-01-16T14:25:18Z,42.805,6.029,13.2999,4.60029,2470.25,2022-1-16T16:26:49Z
2022-01-16T14:28:21Z,42.805,6.029,13.3000,4.60029,2470.264,2022-1-16T16:29:52Z
2022-01-16T14:31:24Z,42.805,6.029,13.3000,4.60029,2470.264,2022-1-16T16:32:55Z
2022-01-16T14:34:27Z,42.805,6.029,13.3000,4.60029,2470.273,2022-1-16T16:35:58Z
2022-01-16T14:37:30Z,42.805,6.029,13.3002,4.60028,2470.264,2022-1-16T16:39:02Z
2022-01-16T14:40:34Z,42.805,6.029,13.3000,4.60028,2470.287,2022-1-16T16:42:05Z
2022-01-16T14:43:37Z,42.805,6.029,13.3001,4.60028,2470.287,2022-1-16T16:45:08Z
2022-01-16T14:46:40Z,42.805,6.029,13.3003,4.60029,2470.273,2022-1-16T16:48:11Z
2022-01-16T14:49:43Z,42.805,6.029,13.3000,4.60029,2470.31,2022-1-16T16:51:14Z
2022-01-16T14:52:46Z,42.805,6.029,13.3002,4.60029,2470.264,2022-1-16T16:54:17Z
2022-01-16T14:55:49Z,42.805,6.029,13.3001,4.60029,2470.287,2022-1-16T16:57:20Z
2022-01-16T14:58:52Z,42.805,6.029,13.3001,4.60028,2470.273,2022-1-16T17:00:24Z
2022-01-16T15:01:56Z,42.805,6.029,13.3004,4.60028,2470.297,2022-1-16T17:03:27Z
2022-01-16T15:04:59Z,42.805,6.029,13.3003,4.60028,2470.31,2022-1-16T17:06:30Z
2022-01-16T15:08:02Z,42.805,6.029,13.3000,4.60029,2470.273,2022-1-16T17:09:33Z
2022-01-16T15:11:05Z,42.805,6.029,13.3003,4.60029,2470.31,2022-1-16T17:12:36Z
2022-01-16T15:14:08Z,42.805,6.029,13.3001,4.60028,2470.273,2022-1-16T17:15:39Z